CAPE
1507 1463 1470 1468 1462 1446 1521 1677 1854 1945 2014 2173 2345 2442 2460 2487 2514 2520 2588 2574 2494 2332 2054 1558 1203 1083 899 660 121 30 34 23 30 2 0 16 0 0 0 0 0 0
1538 1501 1487 1490 1465 1452 1454 1526 1702 1875 1976 2076 2219 2315 2354 2395 2444 2476 2526 2504 2437 2262 1900 1480 1242 1080 894 676 145 18 35 33 38 64 1 10 12 0 0 0 0 0
1567 1551 1544 1538 1528 1533 1542 1538 1605 1744 1829 1928 2048 2129 2203 2257 2346 2416 2481 2474 2370 2146 1818 1503 1248 1083 890 650 164 12 31 29 24 57 58 3 0 0 0 0 0 0
1598 1586 1569 1569 1561 1587 1611 1598 1609 1657 1736 1794 1870 1954 2007 2110 2174 2287 2380 2430 2316 2106 1886 1630 1363 1079 844 620 358 0 1 23 26 27 94 52 15 0 0 0 9 0
1627 1612 1588 1570 1570 1596 1655 1672 1652 1644 1676 1726 1766 1826 1884 1978 2044 2118 2202 2286 2258 2124 1928 1692 1443 1175 884 636 493 0 0 1 7 22 57 50 20 34 13 7 90 94
1644 1637 1624 1606 1592 1600 1667 1731 1750 1715 1665 1644 1670 1709 1804 1904 1960 1998 2033 2070 2096 2080 1972 1748 1519 1260 1011 750 574 328 2 0 1 10 54 54 28 64 73 12 10 61
1662 1667 1671 1655 1651 1642 1668 1728 1796 1815 1798 1744 1689 1714 1786 1856 1920 1940 1923 1894 1908 1958 1957 1836 1598 1337 1083 862 654 481 0 10 3 2 66 58 53 42 79 34 14 12
1648 1697 1708 1711 1709 1726 1727 1741 1792 1856 1894 1867 1808 1806 1812 1861 1886 1895 1850 1814 1807 1872 1902 1835 1654 1385 1145 916 718 617 14 3 7 6 381 316 48 59 54 60 24 5
1641 1701 1759 1779 1788 1810 1822 1806 1809 1870 1924 1930 1914 1895 1880 1866 1872 1862 1844 1808 1798 1827 1822 1752 1656 1474 1196 971 770 664 97 1 7 16 165 185 67 84 67 52 36 20
1681 1720 1803 1866 1886 1909 1926 1914 1892 1902 1968 1993 2004 1966 1931 1922 1895 1866 1832 1796 1779 1764 1733 1688 1638 1526 1297 1064 885 729 212 13 2 7 17 24 65 98 70 64 80 28
1810 1789 1845 1925 1978 1996 2016 2031 2015 1982 1994 2049 2061 2052 2034 2009 1980 1948 1886 1801 1750 1704 1669 1648 1633 1556 1369 1150 1012 894 637 301 18 6 4 13 26 58 222 71 86 78
1970 1914 1897 1949 2028 2076 2103 2122 2134 2106 2083 2110 2117 2126 2130 2133 2117 2062 1976 1880 1788 1721 1677 1664 1641 1612 1497 1258 1126 990 772 574 515 130 12 11 18 18 111 96 96 72
2148 2090 2030 2017 2062 2119 2154 2176 2199 2208 2190 2194 2200 2212 2205 2210 2218 2194 2116 2017 1929 1852 1801 1764 1733 1688 1627 1475 1272 1124 864 662 616 518 52 48 30 19 30 79 80 66
2250 2250 2221 2184 2162 2166 2192 2222 2238 2261 2274 2274 2284 2288 2278 2257 2245 2227 2201 2141 2054 1971 1920 1880 1838 1785 1736 1663 1476 1233 924 733 692 665 524 150 62 296 399 146 53 61
2303 2343 2366 2367 2343 2310 2291 2290 2299 2312 2322 2336 2344 2347 2344 2338 2318 2269 2245 2186 2126 2055 1988 1963 1923 1892 1845 1744 1574 1315 1020 814 771 756 728 482 110 74 105 28 239 259
2354 2408 2452 2495 2505 2487 2454 2418 2402 2392 2388 2382 2388 2399 2405 2395 2367 2335 2269 2227 2174 2124 2098 2058 2009 1964 1916 1820 1660 1428 1141 959 921 945 974 843 365 127 190 222 248 282
2428 2473 2514 2570 2597 2583 2568 2550 2535 2514 2493 2474 2452 2446 2467 2474 2445 2400 2349 2321 2281 2209 2154 2076 2064 2043 2012 1944 1831 1650 1434 1264 1205 1170 1151 1084 815 482 242 290 316 281
2540 2565 2600 2640 2652 2660 2643 2630 2612 2603 2576 2547 2511 2485 2478 2493 2493 2466 2443 2409 2386 2338 2264 2161 2047 2004 2004 1992 1921 1800 1640 1513 1424 1343 1370 1363 1218 963 601 493 430 338
2656 2666 2690 2704 2721 2722 2712 2698 2676 2646 2619 2571 2550 2517 2498 2500 2520 2504 2495 2470 2428 2375 2317 2249 2168 2066 2016 1958 1897 1857 1787 1719 1608 1503 1512 1550 1486 1316 1034 819 522 354
2799 2784 2779 2779 2774 2784 2780 2775 2740 2709 2650 2596 2559 2529 2523 2529 2525 2526 2520 2495 2472 2439 2371 2241 2168 2089 2071 2016 1953 1921 1839 1806 1775 1671 1665 1708 1634 1506 1312 1207 742 417
2957 2910 2897 2867 2846 2842 2840 2834 2799 2750 2689 2630 2564 2529 2522 2518 2516 2524 2536 2533 2508 2474 2420 2324 2241 2140 2083 2052 1997 1981 1913 1914 2001 1912 1826 1812 1766 1539 1436 1374 963 546
3079 3040 3011 2972 2920 2898 2888 2868 2838 2786 2733 2670 2574 2522 2484 2468 2470 2488 2527 2530 2526 2504 2468 2434 2373 2280 2210 2156 2120 2072 2036 2032 1901 1720 1715 1779 1816 1544 1348 1162 957 636
3117 3124 3091 3050 2990 2939 2917 2899 2864 2834 2776 2702 2626 2549 2482 2436 2432 2456 2499 2541 2557 2541 2527 2508 2462 2456 2396 2334 2280 2222 2155 2192 1999 1736 1379 1262 1372 1239 890 750 635 429
3054 3130 3130 3092 3058 2998 2963 2933 2908 2876 2838 2774 2704 2632 2538 2462 2420 2414 2458 2502 2527 2532 2543 2562 2558 2540 2528 2466 2395 2306 2238 2170 2080 1652 1550 1160 800 939 967 774 616 476
2936 3066 3126 3117 3085 3080 3040 2993 2970 2940 2912 2854 2820 2744 2669 2588 2513 2484 2486 2508 2542 2576 2606 2613 2619 2617 2599 2570 2520 2394 2408 2440 2326 2220 2006 1588 1336 1318 1048 840 552 611
2870 3028 3105 3116 3110 3105 3097 3074 3032 2989 2979 2932 2904 2860 2822 2760 2698 2650 2622 2626 2640 2689 2718 2738 2737 2730 2715 2679 2622 2536 2540 2507 2567 2638 2268 1622 1645 1562 1319 1134 756 499
Wind_Speed
10 10 10 11 10 11 12 13 14 14 15 16 17 15 13 10 8 7 8 7 9 10 11 12 13 15 16 18 18 nan nan nan nan nan nan nan nan nan nan nan nan nan
12 12 13 13 13 13 13 13 14 16 16 17 16 15 12 9 6 6 7 7 8 9 9 11 13 16 17 18 19 nan nan nan nan nan nan nan nan nan nan nan nan nan
14 15 15 15 15 15 14 15 16 16 16 17 16 14 10 6 5 5 6 7 7 8 9 11 14 16 18 18 19 nan nan nan nan nan nan nan nan nan nan nan nan nan
16 16 16 16 17 18 17 17 17 16 16 16 16 13 8 5 4 5 5 7 7 8 10 11 14 16 17 18 17 nan nan nan nan nan nan nan nan nan nan nan nan nan
18 18 18 19 20 20 19 17 16 17 16 15 14 12 7 6 4 4 5 5 6 8 10 12 14 15 16 16 15 nan nan nan nan nan nan nan nan nan nan nan nan nan
20 21 21 20 21 21 19 17 16 18 16 14 12 10 7 6 5 4 5 6 7 8 10 12 14 14 15 16 16 15 nan nan nan nan nan nan nan nan nan nan nan nan
22 22 21 21 20 19 18 17 17 17 16 13 12 9 8 7 5 4 4 6 8 9 11 13 13 14 14 15 16 16 nan nan nan nan nan nan nan nan nan nan nan nan
21 21 21 20 19 18 17 17 16 15 15 14 9 9 9 7 6 5 5 7 8 10 12 12 13 14 15 16 17 18 nan nan nan nan 26 27 nan nan nan nan nan nan
19 19 20 19 18 16 15 15 14 14 15 12 10 11 10 8 7 5 6 7 8 10 12 12 13 15 16 17 18 20 nan nan nan nan 28 29 nan nan nan nan nan nan
16 16 17 16 15 14 13 13 14 14 14 12 12 12 10 10 8 7 8 9 9 11 11 11 13 16 17 18 20 22 24 nan nan nan nan nan nan nan nan nan nan nan
14 15 15 15 14 13 12 13 13 14 13 13 14 12 11 12 9 9 9 10 10 10 10 12 15 18 20 20 21 23 26 27 nan nan nan nan nan nan 33 nan nan nan
14 13 14 14 14 12 12 13 14 14 13 14 14 12 13 12 10 10 11 10 9 9 10 13 16 19 22 23 24 25 27 29 30 30 nan nan nan nan 33 nan nan nan
14 13 13 13 13 12 13 13 13 14 14 14 15 14 14 12 10 11 12 11 9 9 11 14 17 20 23 25 25 27 29 31 32 31 nan nan nan nan nan nan nan nan
15 14 14 13 12 12 13 13 14 15 15 16 16 15 13 12 12 13 14 12 9 10 12 15 18 21 24 26 28 29 31 32 33 32 29 25 nan 29 28 27 nan nan
16 16 15 14 14 13 12 13 14 15 16 17 17 16 15 13 15 16 15 12 10 12 13 16 19 22 24 29 31 33 34 35 35 33 29 27 28 nan 26 nan 28 29
18 18 18 16 15 14 13 13 15 16 17 17 17 17 16 17 18 17 14 12 12 13 15 16 19 21 26 35 36 36 37 34 34 34 33 31 28 26 26 28 29 30
21 20 21 19 17 16 16 16 16 17 18 18 18 18 17 18 20 17 15 14 14 15 16 17 19 22 30 35 39 42 39 35 37 39 37 32 28 27 30 31 29 31
23 23 22 21 21 19 19 19 18 18 17 18 19 19 19 21 20 18 17 16 16 16 16 18 20 24 33 36 40 44 41 37 40 41 35 31 30 31 32 31 30 30
25 25 24 24 24 23 23 23 22 19 17 18 18 20 23 22 20 19 18 18 18 17 17 19 20 27 33 37 40 45 45 43 43 40 36 33 32 31 31 30 29 31
26 26 25 25 26 27 27 25 24 22 19 18 21 24 23 22 22 20 18 19 19 18 18 20 22 28 34 37 41 47 50 49 42 38 36 36 31 29 31 31 31 33
27 26 26 27 29 30 30 27 26 25 23 21 22 23 23 23 23 21 19 19 20 20 20 22 22 30 35 38 42 48 52 52 40 35 37 37 29 29 32 32 33 34
28 27 28 30 31 31 30 28 28 29 27 25 22 23 24 26 25 23 21 20 21 22 23 22 24 33 36 38 43 48 52 49 45 39 39 33 28 29 32 34 36 38
30 29 30 33 33 31 29 29 30 29 29 28 25 24 26 26 25 25 25 23 23 24 24 23 24 31 36 39 44 51 51 45 43 42 38 31 30 32 34 37 40 41
31 31 32 34 34 30 27 28 30 31 30 32 29 27 25 25 26 28 28 26 26 26 25 25 25 29 35 39 47 53 54 47 42 44 41 35 36 38 38 40 43 49
31 32 33 35 35 31 29 28 30 31 33 34 31 28 25 26 28 29 30 30 28 27 27 27 26 29 33 41 48 52 54 47 43 42 42 37 39 40 39 41 43 46
32 32 32 33 34 33 32 30 31 33 35 34 33 32 29 29 30 30 30 31 31 29 29 28 28 31 33 42 47 50 55 52 45 42 37 37 40 41 41 42 44 45
Wind_Direction
295 285 284 279 279 281 287 293 291 297 301 301 305 311 318 321 314 338 352 348 354 356 348 343 341 340 340 338 343 nan nan nan nan nan nan nan nan nan nan nan nan nan
293 289 278 275 274 274 277 283 287 295 301 302 303 306 307 303 322 338 344 348 351 357 346 338 336 335 337 340 345 nan nan nan nan nan nan nan nan nan nan nan nan nan
283 282 284 284 281 282 283 280 284 289 295 299 297 296 296 293 317 330 335 344 349 351 341 336 332 335 339 343 349 nan nan nan nan nan nan nan nan nan nan nan nan nan
281 281 281 282 279 280 279 279 281 284 284 284 291 292 285 272 293 320 326 340 344 341 336 328 335 335 340 347 351 nan nan nan nan nan nan nan nan nan nan nan nan nan
281 277 273 273 274 276 277 281 285 283 284 285 282 280 267 255 271 294 311 324 329 333 324 330 331 338 344 350 350 nan nan nan nan nan nan nan nan nan nan nan nan nan
274 274 273 274 275 278 280 283 281 280 279 276 280 265 252 261 274 298 308 315 315 324 324 324 332 343 348 350 346 349 nan nan nan nan nan nan nan nan nan nan nan nan
281 277 277 272 273 276 278 278 276 277 276 272 258 252 248 260 276 292 301 304 310 318 325 326 337 347 346 345 347 351 nan nan nan nan nan nan nan nan nan nan nan nan
283 277 276 273 275 276 278 276 275 274 269 261 254 242 247 261 273 271 279 295 304 314 322 330 339 344 339 339 348 351 nan nan nan nan 354 353 nan nan nan nan nan nan
283 281 279 281 284 280 282 280 275 268 261 260 247 238 243 255 263 267 273 285 298 307 317 331 336 334 333 339 347 349 nan nan nan nan 356 356 nan nan nan nan nan nan
296 291 292 293 295 288 288 282 271 262 257 252 246 242 250 250 252 258 264 280 296 305 318 328 328 327 331 339 347 348 348 nan nan nan nan nan nan nan nan nan nan nan
305 300 302 305 304 291 293 281 271 261 252 250 247 248 250 251 245 246 260 275 292 309 316 322 326 329 334 340 345 348 348 345 nan nan nan nan nan nan 348 nan nan nan
309 308 310 311 307 298 293 282 270 262 254 246 250 254 253 252 250 248 259 277 287 300 314 324 327 332 336 340 347 349 347 345 345 349 nan nan nan nan 346 nan nan nan
318 318 310 306 303 295 282 274 269 265 259 252 252 257 260 255 250 256 260 272 288 298 316 326 331 333 336 338 343 347 347 346 348 350 nan nan nan nan nan nan nan nan
318 311 311 310 297 287 282 278 271 264 260 254 256 266 266 261 257 261 265 270 285 302 316 323 331 335 335 335 339 343 343 346 351 351 350 347 nan 335 338 342 nan nan
302 298 300 302 301 293 285 279 275 266 260 259 264 268 259 256 256 261 269 276 285 302 316 323 332 335 332 333 337 339 339 344 348 346 340 332 329 nan 334 nan 338 342
294 291 292 294 299 305 298 284 273 268 267 268 271 269 260 255 259 266 273 280 289 303 314 323 331 329 336 342 340 335 334 338 339 335 328 325 326 328 330 331 336 337
293 292 290 294 297 295 295 295 288 276 272 271 268 267 264 260 263 271 274 276 293 306 319 326 328 329 340 341 343 336 328 330 332 329 327 328 327 325 330 335 337 337
298 294 294 297 294 297 296 295 292 287 280 272 269 270 267 265 269 273 273 279 290 307 320 327 328 331 337 343 340 331 324 323 325 328 329 328 322 323 328 333 338 337
296 296 299 299 301 299 290 287 292 296 293 281 277 271 267 271 273 270 274 285 297 310 322 324 322 329 338 341 336 325 321 319 323 332 327 320 316 322 332 337 336 334
294 297 300 302 299 294 290 290 294 302 301 288 273 268 271 275 274 274 277 289 299 307 315 314 318 326 337 336 331 322 319 321 323 323 315 306 314 334 340 338 335 333
292 295 299 297 292 291 291 294 299 298 298 292 284 281 279 277 275 272 275 287 296 299 302 307 313 324 332 333 327 320 323 322 313 305 304 305 319 338 340 336 335 336
290 289 291 289 289 289 291 295 298 299 299 295 290 283 276 270 266 264 271 281 287 293 298 306 312 323 330 331 324 320 324 317 318 315 306 312 324 336 338 338 338 338
289 285 283 284 285 289 293 294 295 296 294 291 293 289 282 279 274 269 268 274 282 287 298 305 310 322 327 328 322 317 315 310 315 317 315 320 330 335 339 339 337 337
285 281 281 281 281 287 291 289 287 284 288 289 294 292 287 282 273 264 262 268 277 287 297 304 309 314 325 324 316 315 310 312 322 317 320 326 332 335 338 336 335 340
277 276 279 279 280 283 284 284 284 284 281 281 285 287 283 272 265 261 260 265 273 283 296 304 305 306 320 317 315 315 313 316 313 317 319 323 326 333 333 331 331 335
272 272 273 274 277 277 277 278 275 274 277 280 282 282 278 269 263 261 264 266 271 280 286 295 297 296 309 315 315 317 316 313 309 310 318 325 328 332 330 327 327 328